Miscellaneous Local Product
Issued by NWS Hastings, NE

Home | Current Version | Previous Version | Text Only | Print | Product List | Glossary Off
Versions: 1 2 3 4 5 6 7 8 9 10 11 12 13 14 15 16 17 18 19 20 21 22 23 24 25 26 27 28 29 30 31 32 33 34 35 36 37 38 39 40 41 42 43 44 45 46 47 48 49 50

000
AXUS43 KGID 280402
MISGRI

GID CWA HOURLY WEATHER ROUNDUP
NATIONAL WEATHER SERVICE HASTINGS NE
1100 PM CDT WED MAY 27 2015

NOTE: "FAIR" INDICATES FEW OR NO CLOUDS BELOW 12,000 FEET WITH NO
SIGNIFICANT WEATHER AND/OR OBSTRUCTIONS TO VISIBILITY.

...SOUTH CENTRAL NEBRASKA...

CITY           SKY/WX    TMP DP  RH WIND       PRES   REMARKS
GRAND ISLAND   CLOUDY    68  57  68 S9        30.07R
HASTINGS       CLOUDY    68  58  70 S8        30.07S
KEARNEY        CLOUDY    66  57  72 S12       30.05F
ORD            CLOUDY    67  55  65 S10       30.03R
YORK           CLOUDY    68  50  52 S10       30.08R
AURORA         CLOUDY    67  55  64 S7        30.07S
LEXINGTON      CLOUDY    66  60  81 S17G23    30.02R
HOLDREGE       CLOUDY    65  59  79 S14       30.04F
HEBRON         CLOUDY    66  57  74 CALM      30.07S

...NEBRASKA PANHANDLE...

CITY           SKY/WX    TMP DP  RH WIND       PRES   REMARKS
CHADRON        CLEAR     61  55  81 S12       29.97R
ALLIANCE       CLEAR     59  55  87 S17       30.02R
SCOTTSBLUFF    PTCLDY    61  56  83 S7        30.04R
SIDNEY         PTCLDY    57  50  77 SE15      30.06S

...WESTERN AND NORTH CENTRAL NEBRASKA...

CITY           SKY/WX    TMP DP  RH WIND       PRES   REMARKS
VALENTINE      CLOUDY    63  53  70 SW12      29.99R
AINSWORTH      CLOUDY    65  55  70 S8        30.03R
ONEILL         MOCLDY    63  55  74 SE5       30.03F
BROKEN BOW     CLOUDY    64  58  80 S6        30.05R
IMPERIAL       PTCLDY    57  53  86 SE12      30.06S
NORTH PLATTE   PTCLDY    64  57  78 S12       30.04R
MCCOOK         CLOUDY    64  59  83 S10G16    30.04S

...EASTERN NEBRASKA...

CITY           SKY/WX    TMP DP  RH WIND       PRES   REMARKS
NORFOLK        CLOUDY    70  47  43 S9        30.05R
SO SIOUX CITY  MOCLDY    69  51  52 S3        30.05R
TEKAMAH        MOCLDY    65  55  70 SW5       30.06R
COLUMBUS       CLOUDY    70  46  43 S8        30.08R
ALBION         CLOUDY    67  50  53 SE7       30.05S
OMAHA EPPLEY   CLOUDY    67  55  65 SE7       30.07R
MILLARD        MOCLDY    67  52  59 CALM      30.07R
LINCOLN        CLOUDY    65  53  65 S8        30.07S
NEBRASKA CITY  MOCLDY    65  49  56 S5        30.09R
BEATRICE       CLOUDY    67  54  63 SE3       30.08R
FALLS CITY     NOT AVBL

...NORTHERN KANSAS...

CITY           SKY/WX    TMP DP  RH WIND       PRES   REMARKS
GOODLAND       LGT RAIN  59  56  89 E15       30.09R
HILL CITY      CLOUDY    65  62  90 N3        30.09R
NORTON         LGT RAIN  63  57  82 CALM      30.04F
PHILLIPSBURG   CLEAR     66  64  94 CALM      30.07S
HAYS           CLOUDY    64  54  68 E6        30.05R
RUSSELL        CLOUDY    69  56  62 SE20      30.04R
CONCORDIA      CLOUDY    67  60  78 SE9       30.06S
SALINA         CLOUDY    72  63  73 SE10      30.06R
TOPEKA         CLOUDY    67  61  81 NE3       30.08S



USA.gov is the U.S. government's official web portal to all federal, state and local government web resources and services.